Regional Weather Roundup
Issued by NWS

Home | Current Version | Previous Version | Text Only | Print | Product List | Glossary On
Versions: 1 2 3 4 5 6 7 8 9 10 11 12 13 14 15 16 17 18 19 20 21 22 23 24 25 26 27 28 29 30 31 32 33 34 35 36 37 38 39 40 41 42 43 44 45 46 47 48 49 50
000
ASHW40 PHFO 311310
RWRHI

WEATHER ROUNDUP FOR HAWAII
NATIONAL WEATHER SERVICE HONOLULU HI
300 AM HST SAT JAN 31 2015

THIS IS AN AUTOMATED REPORT THAT HAS NOT BEEN QUALITY CONTROLLED.

NOTE..."FAIR" INDICATES FEW OR NO CLOUDS BELOW 12,000 FEET WITH NO
SIGNIFICANT WEATHER AND/OR OBSTRUCTIONS TO VISIBILITY.

* - THESE SITES REPORT LIMITED FIELDS

HIZ001>004-311400-
KAUAI-NIIHAU-

CITY           SKY/WX    TMP DP  RH WIND       PRES   REMARKS
LIHUE APT      PTCLDY    60  55  83 W6        30.01F
PORT ALLEN*      N/A     57 N/A N/A N8          N/A
POIPU*           N/A     55 N/A N/A N3          N/A
PRINCEVILLE*     N/A     59 N/A N/A MISG        N/A
KOKOLE POINT*  NOT AVBL
MOLOAA DAIRY*  NOT AVBL
WAIMEA HTS*    NOT AVBL
PUU OPAE*      NOT AVBL
PUU LUA*       NOT AVBL
MAKAHA RIDGE*  NOT AVBL
$$

HIZ005>011-311400-
OAHU-

CITY           SKY/WX    TMP DP  RH WIND       PRES   REMARKS
HONOLULU       PTCLDY    68  63  84 NW8       29.98F
KALAELOA       CLOUDY    68  60  75 CALM      30.00F
KANEOHE MCB    MOCLDY    70  63  78 VRB3      29.98F
WHEELER FIELD  CLOUDY    63  60  88 N2        30.01F
BELLOWS*       NOT AVBL
KAHUKU*        NOT AVBL
WHEELER*       NOT AVBL
WAIANAE HARBOR NOT AVBL
DILLINGHAM*      N/A     68  63  83 MISG        N/A
KAHUKU TRN*      N/A     64  59  82 S3          N/A
KAWAILOA*        N/A    N/A N/A N/A NE3         N/A
KII*             N/A     66  63  88 CALM        N/A
MAKUA RANGE*     N/A     66  61  82 SE5         N/A
OAHU FOREST NW NOT AVBL
SCHOFIELD BRK*   N/A     57  55  94 MISG        N/A
SCHOFIELD S*   NOT AVBL
WAIANAE VLY*   NOT AVBL
KUAOKALA*      NOT AVBL
HONOULIUULI*   NOT AVBL
MOKUOLOE IS*   NOT AVBL
PALEHUA*       NOT AVBL
WAIAWA PHB*    NOT AVBL
$$

HIZ012>013-311400-
MOLOKAI-

CITY           SKY/WX    TMP DP  RH WIND       PRES   REMARKS
MOLOKAI AIRPT  CLOUDY    67  67 100 NW3       30.00F
KALAUPAPA      NOT AVBL
MAKAPULAPAI*   NOT AVBL
MOLOKAI 1*     NOT AVBL
PUU ALII*      NOT AVBL
$$

HIZ016-311400-
KAHOOLAWE-

CITY           SKY/WX    TMP DP  RH WIND       PRES   REMARKS
KAHOOLAWE*     NOT AVBL
HAKIOAWA*      NOT AVBL
HONOKANAIA*      N/A     73  68  84 N7        29.99
KANELOA*         N/A     72  68  88 MISG      29.22S
KEALIALALO*    NOT AVBL
LUA MAKIKA*    NOT AVBL
$$

HIZ014>015-311400-
LANAI-

CITY           SKY/WX    TMP DP  RH WIND       PRES   REMARKS
LANAI CITY     FAIR      62  62 100 NE3       30.04F
LANAI 1*       NOT AVBL
$$

HIZ017>028-311400-
MAUI-

CITY           SKY/WX    TMP DP  RH WIND       PRES   REMARKS
KAHULUI        CLOUDY    72  66  83 CALM      29.98F
KAPALUA-W MAUI NOT AVBL
HANA AIRPORT   CLOUDY    68  68 100 CALM      30.01S
HANA*          NOT AVBL
HALEAKALA SUMM   N/A     37  14  38 SW14G28     N/A  WCI  29
MAALAEA BAY*   NOT AVBL
HALEAKALA*     NOT AVBL
KAUPO GAP*     NOT AVBL
KULA 1*          N/A     50  47  90 S7G14       N/A
$$

HIZ023>026-311400-
BIG ISLAND OF HAWAII COAST AND LOWER SLOPES-

CITY           SKY/WX    TMP DP  RH WIND       PRES   REMARKS
KAILUA KONA    CLOUDY    76  66  71 SE5       29.96F
HILO           CLOUDY    71  67  87 CALM      29.97F
HONOKAA*       NOT AVBL
KAWAIHAE MWT*  NOT AVBL
KAWAIHAE*        N/A     75 N/A N/A E1          N/A
SOUTH POINT*   NOT AVBL
UPOLU AIRPORT* NOT AVBL
KAMUELA*       NOT AVBL
HAKALAU*         N/A     48  45  87 S5G13       N/A
KALOKO-HONOKO* NOT AVBL
PALI 2*          N/A     63  63 100 W2          N/A
KEALAKOMO*       N/A     73  68  83 W5          N/A
KAUPULEHU*     NOT AVBL
KAPAPALA*        N/A     62  61  96 CALM        N/A
LOWER KAHUKU*  NOT AVBL
PUHE CS*       NOT AVBL
PUHO CS*       NOT AVBL
PTA KEAMUKU*     N/A     57  52  82 CALM        N/A
WAIKOLOA*      NOT AVBL
$$

HIZ027>028-311400-
BIG ISLAND OF HAWAII INTERIOR AND SUMMMITS-

CITY           SKY/WX    TMP DP  RH WIND       PRES   REMARKS
BRADSHAW FIELD CLOUDY    38  35  87 SE6       30.29S
MK VISITOR CEN NOT AVBL
MAUNA KEA*       N/A     28  -9  19 NW23        N/A  WCI  14
MAUNA LOA*       N/A     37  -4  17 MISG        N/A
MAUNA LOA 1*   NOT AVBL
PTA KIPUKA*      N/A     52  52 100 E3          N/A
PTA RANGE 17*    N/A     48  45  87 E6          N/A
PTA WEST*        N/A     55  50  82 SE9         N/A
NENE CABIN*    NOT AVBL
AHUMOA*        NOT AVBL
PTA PORTABLE*  NOT AVBL
PUU MALI*      NOT AVBL
$$

HIC003-311400-
NORTHWEST ISLANDS-

CITY           SKY/WX    TMP DP  RH WIND       PRES   REMARKS
MIDWAY ISLAND  PTCLDY    55  45  67 CALM      30.07S
MIDWAY NOS*    NOT AVBL
FRENCH FRIGATE NOT AVBL
$$

PHZ110>124-180-311400-
BUOY REPORTS

STATION/POSITION TIME  TEMP    WIND        PRES    WAVE   SWELL
                       AIR SEA DIR/SP/G            HT/PER HT/DIR
                 (UTC) (F)     (DEG/KT/KT) (MB)    (FT/S) (FT/D)
BUOY 51001       NOT AVBL
BUOY 51101       1300   67 72  280/ 10/ 12 1015.4F  11/14  11/320
BUOY 51100       1300   72 75   70/  2/  6 1015.2F
BUOY 51003       1200   75 78   50/ 10/ 12 1015.7F   8/11   8
BUOY 51004       1158   77 78  100/ 12/ 14 1013.8F   6/11   5/320
BARBERS PT BUOY  NOT AVBL
WAIMEA BAY BUOY  1300      77                N/A     9/13   7/310
KAILUA BAY BUOY  1300      77                N/A     5/11   3/360
LANAI BUOY       1300      77                N/A     4/13   3/280
BARBERS PT 2     1300      77                N/A     6/13   5/310
PAUWELA MAUI     1300      76                N/A    10/11   7/320
HILO             1300      76                N/A     8/11   5/340
KANEOHE BAY BUOY 1300      76                N/A     5/12   2/350
HANALEI KAUAI    NOT AVBL
KAHULUI HARBOR   1300   72 77  310/  7/  9 1015.0F
HONOLULU HARBOR  1300   71 76  340/  1/  3 1015.4F
KILO NALU        NOT AVBL
HILO HARBOR      1300   71 77  220/  1/  2 1014.5F
MOKUOLOE         1300      75              1015.6F
NAWILIWILI       1300      75                N/A
WHOTS BUOY       NOT AVBL
BUOY 51028       NOT AVBL
$$

......................KEY........................................
  SKY/WX - SKY CONDITIONS/PRESENT WEATHER
  TMP    - TEMPERATURE IN FAHRENHEIT
  DWPT   - DEWPOINT IN FAHRENHEIT
  RH     - RELATIVE HUMIDITY IN PERCENT
  WIND   - DIRECTION AND SPEED /MPH FOR ISLANDS...KTS FOR BUOYS/
  PRES   - MEAN SEA LEVEL PRESSURE IN INCHES OF HG
  VSB    - VISIBILITY IN MILES
  HX     - HEAT INDEX
  WCI    - WIND CHILL INDEX
  VRB    - VARIABLE WIND DIRECTION
  N/A    - NOT AVAILABLE


USA.gov is the U.S. government's official web portal to all federal, state and local government web resources and services.